20040331,000025,691214,32.985000,-120.381410,13.458,33.217,NaN,NaN
20040331,000055,691245,32.985010,-120.381870,13.458,33.217,NaN,NaN
20040331,000126,691276,32.985030,-120.382330,13.461,33.217,NaN,NaN
20040331,000156,691306,32.985020,-120.382720,13.460,33.216,NaN,NaN
20040331,000226,691336,32.984980,-120.383070,13.456,33.216,NaN,NaN
20040331,000256,691366,32.984940,-120.383380,13.460,33.216,NaN,NaN
20040331,000325,691395,32.984890,-120.383660,13.455,33.216,NaN,NaN
20040331,000356,691426,32.984840,-120.383870,13.455,33.216,NaN,NaN
20040331,000425,691455,32.984780,-120.384060,13.451,33.215,NaN,NaN
20040331,000456,691486,32.984680,-120.384260,13.449,33.215,NaN,NaN
20040331,000526,691516,32.984610,-120.384450,13.434,33.215,NaN,NaN
20040331,000556,691546,32.984590,-120.384690,13.398,33.210,NaN,NaN
20040331,000625,691575,32.984590,-120.384910,13.349,33.214,NaN,NaN
20040331,000655,691605,32.984570,-120.385050,13.299,33.214,NaN,NaN
20040331,000726,691635,32.984520,-120.385210,13.246,33.215,NaN,NaN
20040331,000756,691666,32.984510,-120.385450,13.241,33.212,NaN,NaN
20040331,000826,691696,32.984520,-120.385730,13.245,33.216,NaN,NaN
20040331,000855,691724,32.984500,-120.385950,13.212,33.215,NaN,NaN
20040331,000926,691756,32.984460,-120.386180,13.193,33.215,NaN,NaN
20040331,000956,691785,32.984400,-120.386410,13.181,33.215,NaN,NaN
20040331,001027,691817,32.984400,-120.386630,13.199,33.216,NaN,NaN
20040331,001057,691847,32.984400,-120.386830,13.224,33.215,NaN,NaN
20040331,001126,691876,32.984400,-120.386980,13.240,33.206,NaN,NaN
20040331,001156,691906,32.984430,-120.387100,13.248,33.200,NaN,NaN
20040331,001226,691936,32.984430,-120.387250,13.251,33.203,NaN,NaN
20040331,001257,691967,32.984450,-120.387450,13.255,33.161,NaN,NaN
20040331,001327,691997,32.984520,-120.387710,13.256,33.141,NaN,NaN
20040331,001356,692026,32.984580,-120.387950,13.256,33.144,NaN,NaN
20040331,001426,692056,32.984620,-120.388120,13.253,33.151,NaN,NaN
20040331,001457,692087,32.984660,-120.388280,13.253,33.177,NaN,NaN
20040331,001526,692116,32.984710,-120.388460,13.249,33.190,NaN,NaN
20040331,001557,692147,32.984790,-120.388710,13.244,33.198,NaN,NaN
20040331,001627,692177,32.984820,-120.388910,13.241,33.204,NaN,NaN
20040331,001656,692206,32.984800,-120.389060,13.244,33.206,NaN,NaN
20040331,001727,692237,32.984900,-120.389340,13.245,33.208,NaN,NaN
20040331,001757,692267,32.984970,-120.389520,13.241,33.193,NaN,NaN
20040331,001827,692297,32.985050,-120.389680,13.246,33.144,NaN,NaN
20040331,001857,692327,32.985230,-120.389850,13.254,33.159,NaN,NaN
20040331,001927,692357,32.985410,-120.390040,13.248,33.176,NaN,NaN
20040331,001956,692386,32.985610,-120.390240,13.249,33.169,NaN,NaN
20040331,002026,692416,32.985780,-120.390460,13.243,33.190,NaN,NaN
20040331,002057,692447,32.985920,-120.390640,13.242,33.202,NaN,NaN
20040331,002127,692477,32.986040,-120.390790,13.253,33.207,NaN,NaN
20040331,002157,692507,32.986180,-120.390980,13.303,33.223,NaN,NaN
20040331,002227,692537,32.986340,-120.391170,13.539,33.194,NaN,NaN
20040331,002256,692566,32.986480,-120.391370,13.287,33.205,NaN,NaN
20040331,002327,692597,32.986590,-120.391480,13.352,33.176,NaN,NaN
20040331,002357,692627,32.986710,-120.391520,13.333,33.125,NaN,NaN
20040331,002427,692657,32.986880,-120.391580,13.272,33.106,NaN,NaN
20040331,002457,692687,32.987060,-120.391680,13.269,33.109,NaN,NaN
20040331,002527,692716,32.987240,-120.391880,13.265,33.131,NaN,NaN
20040331,002557,692747,32.987420,-120.392100,13.258,33.135,NaN,NaN
20040331,002627,692777,32.987600,-120.392310,13.264,33.114,NaN,NaN
20040331,002657,692807,32.987830,-120.392480,13.265,33.133,NaN,NaN
20040331,002727,692837,32.988060,-120.392690,13.262,33.151,NaN,NaN
20040331,002757,692867,32.988310,-120.392940,13.258,33.165,NaN,NaN
20040331,002827,692897,32.988500,-120.393120,13.263,33.156,NaN,NaN
20040331,002857,692927,32.988640,-120.393260,13.250,33.165,NaN,NaN
20040331,002927,692957,32.988770,-120.393400,13.242,33.166,NaN,NaN
20040331,002957,692987,32.988890,-120.393590,13.233,33.183,NaN,NaN
20040331,003027,693017,32.989040,-120.393760,13.228,33.189,NaN,NaN
20040331,003057,693046,32.989190,-120.393910,13.225,33.182,NaN,NaN
20040331,003127,693077,32.989400,-120.394030,13.236,33.132,NaN,NaN
20040331,003157,693107,32.989630,-120.394180,13.247,33.118,NaN,NaN
20040331,003227,693137,32.989830,-120.394380,13.246,33.164,NaN,NaN
20040331,003257,693167,32.990050,-120.394560,13.248,33.186,NaN,NaN
20040331,003327,693197,32.990240,-120.394750,13.247,33.192,NaN,NaN
20040331,003357,693226,32.990480,-120.394910,13.249,33.202,NaN,NaN
20040331,003427,693257,32.990630,-120.395160,13.329,33.197,NaN,NaN
20040331,003457,693287,32.990630,-120.395540,13.274,33.190,NaN,NaN
20040331,003527,693317,32.990700,-120.395920,13.277,33.152,NaN,NaN
20040331,003557,693347,32.990820,-120.396300,13.341,33.155,NaN,NaN
20040331,003627,693377,32.990910,-120.396640,13.299,33.182,NaN,NaN
20040331,003657,693407,32.990910,-120.396880,13.258,33.183,NaN,NaN
20040331,003727,693437,32.990900,-120.397080,13.253,33.202,NaN,NaN
20040331,003757,693467,32.990900,-120.397400,13.258,33.207,NaN,NaN
20040331,003827,693497,32.990880,-120.397710,13.279,33.200,NaN,NaN
20040331,003857,693527,32.990910,-120.397980,13.277,33.198,NaN,NaN
20040331,003927,693556,32.990970,-120.398290,13.278,33.202,NaN,NaN
20040331,003957,693587,32.991020,-120.398580,13.272,33.192,NaN,NaN
20040331,004027,693617,32.991040,-120.398850,13.253,33.166,NaN,NaN
20040331,004057,693647,32.991030,-120.399090,13.255,33.145,NaN,NaN
20040331,004127,693677,32.991010,-120.399280,13.254,33.136,NaN,NaN
20040331,004157,693707,32.990950,-120.399480,13.261,33.134,NaN,NaN
20040331,004227,693736,32.990910,-120.399670,13.257,33.158,NaN,NaN
20040331,004257,693767,32.990860,-120.399850,13.254,33.160,NaN,NaN
20040331,004327,693797,32.990860,-120.400050,13.259,33.186,NaN,NaN
20040331,004357,693827,32.990870,-120.400270,13.258,33.192,NaN,NaN
20040331,004427,693857,32.990880,-120.400520,13.251,33.191,NaN,NaN
20040331,004457,693887,32.990920,-120.400770,13.258,33.183,NaN,NaN
20040331,004527,693917,32.990990,-120.401020,13.263,33.160,NaN,NaN
20040331,004557,693947,32.991020,-120.401260,13.277,33.117,NaN,NaN
20040331,004627,693977,32.991080,-120.401480,13.301,33.103,NaN,NaN
20040331,004657,694007,32.991090,-120.401660,13.316,33.157,NaN,NaN
20040331,004727,694037,32.991110,-120.401810,13.328,33.182,NaN,NaN
20040331,004757,694066,32.991180,-120.402000,13.327,33.193,NaN,NaN
20040331,004827,694097,32.991210,-120.402100,13.322,33.193,NaN,NaN
20040331,004857,694127,32.991230,-120.402190,13.326,33.192,NaN,NaN
20040331,004927,694157,32.991310,-120.402350,13.331,33.193,NaN,NaN
20040331,004957,694187,32.991420,-120.402550,13.333,33.194,NaN,NaN
20040331,005027,694217,32.991530,-120.402760,13.339,33.171,NaN,NaN
20040331,005057,694247,32.991690,-120.402930,13.345,33.108,NaN,NaN
20040331,005127,694277,32.991870,-120.403170,13.349,33.089,NaN,NaN
20040331,005157,694307,32.992050,-120.403470,13.348,33.112,NaN,NaN
20040331,005227,694337,32.992210,-120.403720,13.349,33.161,NaN,NaN
20040331,005257,694367,32.992390,-120.403980,13.344,33.176,NaN,NaN
20040331,005327,694396,32.992490,-120.404240,13.343,33.180,NaN,NaN
20040331,005357,694427,32.992590,-120.404510,13.344,33.165,NaN,NaN
20040331,005427,694457,32.992800,-120.404830,13.351,33.145,NaN,NaN
20040331,005457,694487,32.993010,-120.405020,13.375,33.145,NaN,NaN
20040331,005527,694517,32.993190,-120.405250,13.367,33.123,NaN,NaN
20040331,005557,694547,32.993220,-120.405430,13.374,33.139,NaN,NaN
20040331,005626,694576,32.993210,-120.405830,13.401,33.168,NaN,NaN
20040331,005656,694606,32.993350,-120.406310,13.375,33.154,NaN,NaN
20040331,005727,694637,32.993570,-120.406680,13.334,33.165,NaN,NaN
20040331,005757,694667,32.993870,-120.407090,13.322,33.154,NaN,NaN
20040331,005827,694697,32.994150,-120.407500,13.332,33.170,NaN,NaN
20040331,005857,694727,32.994450,-120.407910,13.342,33.183,NaN,NaN
20040331,005927,694757,32.994760,-120.408500,13.497,33.180,NaN,NaN
20040331,005957,694787,32.994600,-120.409360,13.401,33.173,NaN,NaN
20040331,010027,694817,32.994060,-120.410310,13.351,33.176,NaN,NaN
20040331,010058,694848,32.993410,-120.411300,13.406,33.154,NaN,NaN
20040331,010128,694878,32.992690,-120.412470,13.376,33.131,NaN,NaN
20040331,010158,694908,32.991930,-120.413760,13.341,33.159,NaN,NaN
20040331,010228,694938,32.991160,-120.415070,13.326,33.166,NaN,NaN
20040331,010258,694968,32.990370,-120.416390,13.311,33.177,NaN,NaN
20040331,010328,694998,32.989600,-120.417680,13.320,33.180,NaN,NaN
20040331,010358,695028,32.988820,-120.418950,13.325,33.194,NaN,NaN
20040331,010428,695058,32.988040,-120.420270,13.331,33.202,NaN,NaN
20040331,010458,695088,32.987210,-120.421570,13.334,33.199,NaN,NaN
20040331,010528,695118,32.986400,-120.422890,13.331,33.199,NaN,NaN
20040331,010558,695148,32.985610,-120.424220,13.335,33.203,NaN,NaN
20040331,010628,695178,32.984820,-120.425500,13.340,33.207,NaN,NaN
20040331,010658,695208,32.984040,-120.426780,13.341,33.209,NaN,NaN
20040331,010728,695238,32.983250,-120.428110,13.345,33.208,NaN,NaN
20040331,010758,695268,32.982450,-120.429400,13.336,33.186,NaN,NaN
20040331,010828,695298,32.981660,-120.430690,13.339,33.170,NaN,NaN
20040331,010858,695327,32.980890,-120.432020,13.339,33.157,NaN,NaN
20040331,010928,695358,32.980100,-120.433270,13.341,33.143,NaN,NaN
20040331,010958,695388,32.979320,-120.434550,13.353,33.141,NaN,NaN
20040331,011028,695418,32.978540,-120.435850,13.346,33.159,NaN,NaN
20040331,011058,695448,32.977760,-120.437100,13.341,33.180,NaN,NaN
20040331,011128,695478,32.977000,-120.438410,13.353,33.196,NaN,NaN
20040331,011158,695508,32.976190,-120.439680,13.353,33.201,NaN,NaN
20040331,011228,695538,32.975410,-120.440980,13.359,33.206,NaN,NaN
20040331,011258,695568,32.974620,-120.442240,13.357,33.208,NaN,NaN
20040331,011328,695598,32.973870,-120.443480,13.373,33.206,NaN,NaN
20040331,011358,695628,32.973100,-120.444720,13.382,33.207,NaN,NaN
20040331,011428,695657,32.972290,-120.445980,13.380,33.208,NaN,NaN
20040331,011458,695688,32.971490,-120.447270,13.377,33.206,NaN,NaN
20040331,011528,695718,32.970690,-120.448500,13.381,33.204,NaN,NaN
20040331,011558,695748,32.969890,-120.449790,13.377,33.203,NaN,NaN
20040331,011629,695779,32.969090,-120.451140,13.376,33.202,NaN,NaN
20040331,011658,695808,32.968330,-120.452350,13.381,33.202,NaN,NaN
20040331,011728,695837,32.967540,-120.453570,13.383,33.199,NaN,NaN
20040331,011759,695869,32.966740,-120.454860,13.391,33.203,NaN,NaN
20040331,011828,695898,32.965960,-120.456070,13.381,33.201,NaN,NaN
20040331,011859,695929,32.965170,-120.457390,13.383,33.198,NaN,NaN
20040331,011929,695959,32.964400,-120.458670,13.378,33.197,NaN,NaN
20040331,011958,695988,32.963610,-120.459890,13.374,33.191,NaN,NaN
20040331,012028,696018,32.962790,-120.461180,13.359,33.190,NaN,NaN
20040331,012058,696048,32.961990,-120.462480,13.343,33.186,NaN,NaN
20040331,012128,696078,32.961190,-120.463780,13.338,33.174,NaN,NaN
20040331,012159,696109,32.960380,-120.465130,13.335,33.177,NaN,NaN
20040331,012229,696139,32.959580,-120.466420,13.332,33.165,NaN,NaN
20040331,012259,696169,32.958750,-120.467700,13.334,33.101,NaN,NaN
20040331,012328,696198,32.957950,-120.468970,13.336,33.067,NaN,NaN
20040331,012358,696228,32.957130,-120.470310,13.339,33.094,NaN,NaN
20040331,012428,696258,32.956330,-120.471550,13.342,33.144,NaN,NaN
20040331,012458,696288,32.955540,-120.472860,13.345,33.176,NaN,NaN
20040331,012528,696318,32.954710,-120.474120,13.331,33.187,NaN,NaN
20040331,012558,696348,32.953880,-120.475420,13.323,33.189,NaN,NaN
20040331,012628,696378,32.953070,-120.476730,13.327,33.190,NaN,NaN
20040331,012658,696408,32.952240,-120.478020,13.326,33.188,NaN,NaN
20040331,012728,696438,32.951400,-120.479300,13.341,33.193,NaN,NaN
20040331,012758,696468,32.950660,-120.480530,13.330,33.196,NaN,NaN
20040331,012828,696498,32.949860,-120.481770,13.338,33.188,NaN,NaN
20040331,012858,696528,32.949050,-120.483040,13.334,33.159,NaN,NaN
20040331,012928,696558,32.948210,-120.484290,13.334,33.152,NaN,NaN
20040331,012959,696588,32.947380,-120.485600,13.330,33.150,NaN,NaN
20040331,013029,696619,32.946620,-120.486870,13.336,33.154,NaN,NaN
20040331,013059,696649,32.945800,-120.488090,13.333,33.171,NaN,NaN
20040331,013129,696679,32.945080,-120.489400,13.328,33.184,NaN,NaN
20040331,013159,696709,32.944430,-120.490780,13.328,33.192,NaN,NaN
20040331,013228,696738,32.943830,-120.492140,13.322,33.194,NaN,NaN
20040331,013258,696768,32.943150,-120.493560,13.320,33.189,NaN,NaN
20040331,013328,696798,32.942520,-120.494990,13.306,33.195,NaN,NaN
20040331,013358,696828,32.941850,-120.496380,13.302,33.182,NaN,NaN
20040331,013428,696858,32.941180,-120.497780,13.307,33.154,NaN,NaN
20040331,013458,696888,32.940520,-120.499140,13.307,33.150,NaN,NaN
20040331,013528,696918,32.939850,-120.500520,13.311,33.154,NaN,NaN
20040331,013558,696948,32.939150,-120.501930,13.305,33.163,NaN,NaN
20040331,013628,696978,32.938510,-120.503210,13.302,33.183,NaN,NaN
20040331,013659,697009,32.937850,-120.504630,13.306,33.197,NaN,NaN
20040331,013729,697039,32.937260,-120.506040,13.305,33.204,NaN,NaN
20040331,013759,697069,32.936620,-120.507470,13.301,33.209,NaN,NaN
20040331,013829,697098,32.935980,-120.508910,13.299,33.211,NaN,NaN
20040331,013859,697129,32.935380,-120.510350,13.297,33.210,NaN,NaN
20040331,013929,697159,32.934770,-120.511790,13.297,33.211,NaN,NaN
20040331,013958,697187,32.934160,-120.513180,13.296,33.212,NaN,NaN
20040331,014028,697218,32.933540,-120.514590,13.296,33.212,NaN,NaN
20040331,014058,697248,32.932940,-120.515970,13.297,33.212,NaN,NaN
20040331,014128,697278,32.932320,-120.517390,13.297,33.212,NaN,NaN
20040331,014158,697308,32.931710,-120.518820,13.291,33.213,NaN,NaN
20040331,014228,697338,32.931080,-120.520300,13.296,33.213,NaN,NaN
20040331,014259,697369,32.930490,-120.521760,13.296,33.215,NaN,NaN
20040331,014329,697399,32.929860,-120.523230,13.291,33.215,NaN,NaN
20040331,014359,697428,32.929210,-120.524680,13.290,33.215,NaN,NaN
20040331,014429,697459,32.928630,-120.526120,13.288,33.216,NaN,NaN
20040331,014458,697488,32.928040,-120.527510,13.288,33.216,NaN,NaN
20040331,014528,697517,32.927420,-120.528950,13.278,33.217,NaN,NaN
20040331,014558,697548,32.926810,-120.530390,13.277,33.218,NaN,NaN
20040331,014628,697578,32.926190,-120.531870,13.274,33.219,NaN,NaN
20040331,014659,697609,32.925570,-120.533300,13.275,33.218,NaN,NaN
20040331,014729,697639,32.925000,-120.534740,13.266,33.219,NaN,NaN
20040331,014759,697669,32.924390,-120.536160,13.279,33.217,NaN,NaN
20040331,014829,697699,32.923770,-120.537600,13.274,33.217,NaN,NaN
20040331,014859,697729,32.923170,-120.539040,13.263,33.218,NaN,NaN
20040331,014929,697758,32.922540,-120.540410,13.259,33.218,NaN,NaN
20040331,014958,697788,32.921960,-120.541740,13.260,33.218,NaN,NaN
20040331,015029,697819,32.921310,-120.543200,13.259,33.218,NaN,NaN
20040331,015059,697849,32.920690,-120.544610,13.257,33.218,NaN,NaN
20040331,015129,697879,32.920100,-120.546060,13.262,33.219,NaN,NaN
20040331,015159,697909,32.919470,-120.547510,13.268,33.219,NaN,NaN
20040331,015228,697938,32.918890,-120.548890,13.268,33.219,NaN,NaN
20040331,015258,697968,32.918280,-120.550370,13.267,33.219,NaN,NaN
20040331,015329,697999,32.917620,-120.551840,13.264,33.219,NaN,NaN
20040331,015359,698029,32.917030,-120.553170,13.267,33.220,NaN,NaN
20040331,015428,698058,32.916450,-120.554510,13.290,33.220,NaN,NaN
20040331,015459,698089,32.915850,-120.555980,13.281,33.218,NaN,NaN
20040331,015529,698119,32.915230,-120.557410,13.271,33.220,NaN,NaN
20040331,015559,698149,32.914610,-120.558840,13.280,33.220,NaN,NaN
20040331,015629,698179,32.914010,-120.560270,13.288,33.219,NaN,NaN
20040331,015659,698209,32.913420,-120.561700,13.287,33.218,NaN,NaN
20040331,015729,698239,32.912800,-120.563120,13.295,33.218,NaN,NaN
20040331,015759,698268,32.912170,-120.564530,13.295,33.218,NaN,NaN
20040331,015829,698299,32.911610,-120.565970,13.298,33.217,NaN,NaN
20040331,015859,698329,32.910990,-120.567390,13.302,33.217,NaN,NaN
20040331,015929,698359,32.910350,-120.568830,13.297,33.217,NaN,NaN
20040331,015959,698389,32.909740,-120.570310,13.296,33.217,NaN,NaN
20040331,020029,698419,32.909090,-120.571780,13.293,33.217,NaN,NaN
20040331,020059,698448,32.908460,-120.573240,13.292,33.209,NaN,NaN
20040331,020129,698479,32.907840,-120.574700,13.293,33.216,NaN,NaN
20040331,020159,698509,32.907190,-120.576180,13.295,33.215,NaN,NaN
20040331,020229,698539,32.906550,-120.577660,13.290,33.214,NaN,NaN
20040331,020259,698569,32.905920,-120.579120,13.291,33.214,NaN,NaN
20040331,020329,698599,32.905300,-120.580550,13.295,33.213,NaN,NaN
20040331,020359,698629,32.904680,-120.581990,13.295,33.213,NaN,NaN
20040331,020429,698659,32.904010,-120.583400,13.291,33.213,NaN,NaN
20040331,020458,698688,32.903390,-120.584830,13.298,33.212,NaN,NaN
20040331,020529,698719,32.902740,-120.586300,13.298,33.212,NaN,NaN
20040331,020559,698749,32.902140,-120.587760,13.287,33.212,NaN,NaN
20040331,020629,698778,32.901500,-120.589200,13.283,33.212,NaN,NaN
20040331,020659,698809,32.900840,-120.590630,13.276,33.212,NaN,NaN
20040331,020729,698839,32.900240,-120.592100,13.267,33.213,NaN,NaN
20040331,020759,698869,32.899580,-120.593540,13.249,33.214,NaN,NaN
20040331,020829,698899,32.898940,-120.594960,13.239,33.216,NaN,NaN
20040331,020859,698929,32.898330,-120.596400,13.223,33.217,NaN,NaN
20040331,020929,698959,32.897710,-120.597840,13.214,33.217,NaN,NaN
20040331,020959,698989,32.897070,-120.599240,13.200,33.217,NaN,NaN
20040331,021029,699019,32.896500,-120.600660,13.194,33.217,NaN,NaN
20040331,021059,699049,32.895890,-120.602120,13.197,33.217,NaN,NaN
20040331,021131,699081,32.895260,-120.603620,13.178,33.218,NaN,NaN
20040331,021200,699110,32.894630,-120.604980,13.163,33.220,NaN,NaN
20040331,021230,699140,32.894020,-120.606420,13.153,33.221,NaN,NaN
20040331,021300,699170,32.893450,-120.607840,13.155,33.220,NaN,NaN
20040331,021330,699199,32.892780,-120.609200,13.155,33.220,NaN,NaN
20040331,021400,699230,32.892180,-120.610610,13.158,33.224,NaN,NaN
20040331,021430,699260,32.891560,-120.612040,13.143,33.226,NaN,NaN
20040331,021500,699290,32.890940,-120.613530,13.140,33.228,NaN,NaN
20040331,021530,699320,32.890370,-120.614930,13.138,33.229,NaN,NaN
20040331,021600,699350,32.889750,-120.616290,13.140,33.230,NaN,NaN
20040331,021630,699380,32.889150,-120.617740,13.149,33.231,NaN,NaN
20040331,021700,699410,32.888580,-120.619170,13.153,33.231,NaN,NaN
20040331,021730,699440,32.888000,-120.620590,13.165,33.231,NaN,NaN
20040331,021800,699470,32.887420,-120.622000,13.174,33.231,NaN,NaN
20040331,021830,699500,32.886870,-120.623410,13.185,33.231,NaN,NaN
20040331,021900,699529,32.886330,-120.624870,13.203,33.230,NaN,NaN
20040331,021930,699560,32.885730,-120.626330,13.196,33.230,NaN,NaN
20040331,022000,699590,32.885140,-120.627870,13.202,33.231,NaN,NaN
20040331,022030,699620,32.884550,-120.629300,13.211,33.231,NaN,NaN
20040331,022100,699650,32.883950,-120.630800,13.218,33.230,NaN,NaN
20040331,022130,699680,32.883350,-120.632270,13.228,33.231,NaN,NaN
20040331,022200,699709,32.882780,-120.633770,13.225,33.231,NaN,NaN
20040331,022230,699740,32.882200,-120.635240,13.223,33.231,NaN,NaN
20040331,022300,699770,32.881620,-120.636710,13.227,33.232,NaN,NaN
20040331,022330,699800,32.881040,-120.638180,13.223,33.234,NaN,NaN
20040331,022400,699830,32.880430,-120.639640,13.220,33.237,NaN,NaN
20040331,022430,699860,32.879860,-120.641100,13.220,33.239,NaN,NaN
20040331,022500,699890,32.879290,-120.642550,13.219,33.240,NaN,NaN
20040331,022530,699920,32.878700,-120.643990,13.223,33.242,NaN,NaN
20040331,022600,699950,32.878120,-120.645440,13.228,33.242,NaN,NaN
20040331,022630,699980,32.877540,-120.646890,13.229,33.241,NaN,NaN
20040331,022700,700010,32.876950,-120.648360,13.228,33.244,NaN,NaN
20040331,022730,700039,32.876360,-120.649840,13.231,33.245,NaN,NaN
20040331,022800,700070,32.875740,-120.651300,13.238,33.246,NaN,NaN
20040331,022830,700100,32.875160,-120.652770,13.238,33.246,NaN,NaN
20040331,022900,700130,32.874530,-120.654230,13.239,33.246,NaN,NaN
20040331,022930,700160,32.873930,-120.655690,13.248,33.247,NaN,NaN
20040331,023000,700190,32.873340,-120.657130,13.246,33.246,NaN,NaN
20040331,023030,700220,32.872740,-120.658590,13.246,33.246,NaN,NaN
20040331,023100,700250,32.872150,-120.660060,13.248,33.246,NaN,NaN
20040331,023130,700280,32.871510,-120.661480,13.247,33.245,NaN,NaN
20040331,023200,700310,32.870960,-120.662900,13.248,33.246,NaN,NaN
20040331,023231,700341,32.870330,-120.664410,13.246,33.245,NaN,NaN
20040331,023301,700371,32.869730,-120.665870,13.241,33.245,NaN,NaN
20040331,023330,700400,32.869090,-120.667350,13.241,33.245,NaN,NaN
20040331,023400,700430,32.868490,-120.668760,13.241,33.245,NaN,NaN
20040331,023430,700460,32.867920,-120.670210,13.266,33.244,NaN,NaN
20040331,023500,700490,32.867420,-120.671640,13.241,33.244,NaN,NaN
20040331,023530,700520,32.866890,-120.673120,13.236,33.245,NaN,NaN
20040331,023601,700551,32.866360,-120.674610,13.235,33.244,NaN,NaN
20040331,023630,700580,32.865880,-120.676130,13.240,33.244,NaN,NaN
20040331,023700,700610,32.865330,-120.677640,13.234,33.243,NaN,NaN
20040331,023731,700641,32.864820,-120.679130,13.232,33.243,NaN,NaN
20040331,023801,700671,32.864330,-120.680620,13.231,33.242,NaN,NaN
20040331,023831,700701,32.863800,-120.682100,13.226,33.242,NaN,NaN
20040331,023901,700731,32.863310,-120.683600,13.220,33.242,NaN,NaN
20040331,023931,700761,32.862810,-120.685100,13.214,33.242,NaN,NaN
20040331,024000,700790,32.862320,-120.686600,13.215,33.234,NaN,NaN
20040331,024030,700820,32.861830,-120.688120,13.211,33.242,NaN,NaN
20040331,024101,700851,32.861330,-120.689590,13.208,33.242,NaN,NaN
20040331,024131,700881,32.860830,-120.691070,13.212,33.242,NaN,NaN
20040331,024201,700911,32.860340,-120.692570,13.216,33.241,NaN,NaN
20040331,024231,700941,32.859850,-120.694050,13.217,33.241,NaN,NaN
20040331,024301,700970,32.859330,-120.695540,13.217,33.241,NaN,NaN
20040331,024330,701000,32.858830,-120.697050,13.213,33.240,NaN,NaN
20040331,024400,701030,32.858310,-120.698540,13.213,33.240,NaN,NaN
20040331,024431,701061,32.857780,-120.700060,13.219,33.239,NaN,NaN
20040331,024501,701091,32.857230,-120.701540,13.215,33.238,NaN,NaN
20040331,024531,701121,32.856750,-120.703030,13.219,33.237,NaN,NaN
20040331,024601,701151,32.856240,-120.704560,13.222,33.236,NaN,NaN
20040331,024631,701181,32.855750,-120.706100,13.210,33.235,NaN,NaN
20040331,024701,701211,32.855260,-120.707640,13.207,33.234,NaN,NaN
20040331,024731,701241,32.854740,-120.709160,13.207,33.234,NaN,NaN
20040331,024801,701271,32.854220,-120.710650,13.207,33.235,NaN,NaN
20040331,024831,701300,32.853760,-120.712140,13.214,33.234,NaN,NaN
20040331,024901,701331,32.853300,-120.713640,13.216,33.233,NaN,NaN
20040331,024931,701361,32.852780,-120.715130,13.208,33.233,NaN,NaN
20040331,025001,701391,32.852280,-120.716640,13.206,33.232,NaN,NaN
20040331,025030,701420,32.851790,-120.718140,13.201,33.231,NaN,NaN
20040331,025100,701450,32.851300,-120.719660,13.193,33.227,NaN,NaN
20040331,025130,701480,32.850790,-120.721190,13.175,33.223,NaN,NaN
20040331,025200,701510,32.850290,-120.722710,13.162,33.220,NaN,NaN
20040331,025231,701541,32.849780,-120.724220,13.153,33.217,NaN,NaN
20040331,025300,701570,32.849320,-120.725710,13.159,33.216,NaN,NaN
20040331,025331,701601,32.848790,-120.727220,13.144,33.212,NaN,NaN
20040331,025400,701630,32.848330,-120.728730,13.143,33.213,NaN,NaN
20040331,025431,701661,32.847830,-120.730280,13.147,33.211,NaN,NaN
20040331,025501,701691,32.847360,-120.731810,13.151,33.208,NaN,NaN
20040331,025531,701721,32.846890,-120.733370,13.143,33.199,NaN,NaN
20040331,025601,701751,32.846390,-120.734880,13.109,33.177,NaN,NaN